Location: Camp at the Woods
(43.2055°N, 93.0905°W)
Time: 04:29:48
(UTC+00:00)

SeaSat 1 - Pass Details

Date: 05 December 2023
Orbit: 741 x 744 km, 108.0° (Epoch: 01 March)

Event Time Altitude Azimuth Distance (km) Brightness Sun altitude
Rises 12:12:00 0° 125° (SE) 3,168 7.3 -13.5°
Reaches altitude 10° 12:14:26 10° 116° (ESE) 2,248 6.4 -13.1°
Maximum altitude 12:18:46 33° 53° (NE) 1,241 3.9 -12.3°
Drops below altitude 10° 12:23:07 10° 351° (N) 2,260 4.7 -11.6°
Enters shadow 12:25:29 - 342° (NNW) 3,155 5.3 -11.2°
